Location: Congrier
(47.8099°N, 1.1170°W)
Time: 00:06:16
(UTC+00:00)

ATLAS CENTAUR R/B - Pass Details

Date: 28 January 2023
Orbit: 450 x 653 km, 64.7° (Epoch: 19 March)

Event Time Altitude Azimuth Distance (km) Brightness Sun altitude
Rises 19:10:49 0° 226° (SW) 2,982 5.8 -22.2°
Reaches altitude 10° 19:13:11 10° 230° (SW) 2,066 4.9 -22.6°
Maximum altitude 19:17:51 63° 311° (NW) 723 2.0 -23.4°
Enters shadow 19:19:06 44° 10° (N) 884 2.2 -23.6°
